Nassau, Bahamas

7:14 PM EST on November 21, 2017 (GMT -0500)
Nassau International

Weather History for MYNN - March, 2014

Change the Weather History Date:

Thursday, March 13, 2014

  Actual Average Record
Temperature  
Mean Temperature 74 °F -  
Max Temperature 80 °F 81 °F 87 °F (2002)
Min Temperature 68 °F 65 °F 57 °F (2005)
Cooling Degree Days 10    
Growing Degree Days 24 (Base 50)    
Moisture  
Dew Point 66 °F    
Average Humidity 75    
Maximum Humidity 94    
Minimum Humidity 57    
Precipitation  
Precipitation 0.04 in 0.06 in - ()
Sea Level Pressure  
Sea Level Pressure 29.97 in    
Wind  
Wind Speed 10 mph ()    
Max Wind Speed 17 mph    
Max Gust Speed 24 mph    
Visibility 6.6 miles    
Events Rain , Thunderstorm    
Averages and records for this station are not official NWS values.
T = Trace of Precipitation, MM = Missing Value Source: Averaged Metar Reports

Daily Weather History Graph

Daily Weather History Graph

Search for Another Location

Airport or City:

Trip Planner

Search our weather history database for the weather conditions in past years. The results will help you decide how hot, cold, wet, or windy it might be!

Date:

Astronomy

Mar. 13, 2014 Rise Set
Actual Time 7:21 AM EDT 7:17 PM EDT
Civil Twilight 6:58 AM EDT 7:40 PM EDT
Nautical Twilight 6:31 AM EDT 8:07 PM EDT
Astronomical Twilight 6:05 AM EDT 8:33 PM EDT
Moon 4:54 PM EDT (3/13) 5:12 AM EDT (3/13)
Length of Visible Light 12h 42m
Length of Day
11h 56m
Waxing Gibbous, 91% of the Moon is Illuminated
Mar 13
Waxing Gibbous
Mar 16
Full
Mar 23
Last Quarter
Mar 30
New
Apr 7
First Quarter

Hourly Weather History & Observations

Time (EDT) Temp. Dew Point Humidity Pressure Visibility Wind Dir Wind Speed Gust Speed Precip Events Conditions
12:00 AM 73.4 °F 68.0 °F 83% 29.91 in 6.2 mi SW 6.9 mph - N/A   Partly Cloudy
1:00 AM 75.2 °F 68.0 °F 78% 29.90 in 6.2 mi SW 9.2 mph - N/A   Partly Cloudy
2:00 AM 75 °F 71 °F 83% 29.90 in 9 mi SW 11.5 mph - -   Scattered Clouds
2:00 AM 75.2 °F 71.6 °F 89% 29.90 in 6.2 mi SW 11.5 mph - N/A   Partly Cloudy
3:00 AM 75.2 °F 69.8 °F 83% 29.88 in 6.2 mi SW 11.5 mph - N/A   Scattered Clouds
4:00 AM 75.2 °F 69.8 °F 83% 29.87 in 6.2 mi SW 9.2 mph - N/A   Scattered Clouds
5:00 AM 75 °F 71 °F 84% 29.87 in 9 mi WSW 10.4 mph - -   Mostly Cloudy
5:00 AM 75.2 °F 71.6 °F 89% 29.87 in 6.2 mi WSW 10.4 mph - N/A   Mostly Cloudy
6:00 AM 75.2 °F 69.8 °F 83% 29.89 in 6.2 mi SW 11.5 mph - N/A Thunderstorm Mostly Cloudy
7:00 AM 75.2 °F 69.8 °F 83% 29.89 in 6.2 mi SSW 8.1 mph - N/A Rain Light Rain Showers
8:00 AM 75 °F 73 °F 93% 29.92 in 8 mi SW 11.5 mph - - Rain Light Rain Showers
8:00 AM 75.2 °F 73.4 °F 94% 29.91 in 6.2 mi SW 11.5 mph - N/A   Mostly Cloudy
9:00 AM 75.2 °F 71.6 °F 89% 29.94 in 6.2 mi WSW 9.2 mph - N/A   Mostly Cloudy
10:00 AM 75.2 °F 71.6 °F 89% 29.96 in 6.2 mi West 11.5 mph - N/A   Mostly Cloudy
11:00 AM 73 °F 71 °F 91% 29.99 in 4 mi NNW 11.5 mph - - Rain Light Rain
11:00 AM 73.4 °F 71.6 °F 94% 29.99 in - NNW 11.5 mph - N/A Rain Rain
12:00 PM 73.4 °F 64.4 °F 73% 30.01 in 6.2 mi North 11.5 mph 24.2 mph N/A   Overcast
1:00 PM 75.2 °F 64.4 °F 69% 30.00 in 6.2 mi North 11.5 mph - N/A   Mostly Cloudy
2:00 PM 79 °F 67 °F 59% 29.99 in 8 mi North 11.5 mph - -   Partly Cloudy
2:00 PM 78.8 °F 68.0 °F 69% 29.98 in 6.2 mi North 11.5 mph 24.2 mph N/A   Scattered Clouds
3:00 PM 77.0 °F 62.6 °F 61% 29.97 in 6.2 mi North 11.5 mph - N/A   Mostly Cloudy
4:00 PM 77.0 °F 62.6 °F 61% 29.98 in 6.2 mi North 15.0 mph - N/A   Mostly Cloudy
5:00 PM 77 °F 66 °F 60% 30.00 in 8 mi North 17.3 mph - -   Mostly Cloudy
5:00 PM 77.0 °F 66.2 °F 69% 30.00 in 6.2 mi North 17.3 mph - N/A   Mostly Cloudy
6:00 PM 73.4 °F 60.8 °F 65% 30.01 in 6.2 mi North 13.8 mph - N/A   Scattered Clouds
7:00 PM 71.6 °F 57.2 °F 60% 30.04 in 6.2 mi North 11.5 mph - N/A   Partly Cloudy
8:00 PM 70 °F 58 °F 57% 30.06 in 8 mi North 13.8 mph - -   Scattered Clouds
8:00 PM 69.8 °F 57.2 °F 64% 30.06 in 6.2 mi North 13.8 mph - N/A   Partly Cloudy
9:00 PM 69.8 °F 55.4 °F 60% 30.07 in 6.2 mi North 12.7 mph - N/A   Partly Cloudy
10:00 PM 69.8 °F 55.4 °F 60% 30.11 in 6.2 mi North 13.8 mph - N/A   Partly Cloudy
11:00 PM 69 °F 60 °F 65% 30.13 in 8 mi North 16.1 mph - -   Scattered Clouds
11:00 PM 68.0 °F 59.0 °F 73% 30.12 in 6.2 mi North 16.1 mph - N/A   Partly Cloudy